Location: Clairmont
(55.2667°N, 118.8000°W)
Time: 09:41:11
(UTC+00:00)

N. Korean satellite - Pass Details

Date: 03 November 2020
Orbit: 453 x 503 km, 97.2° (Epoch: 03 December)

Event Time Altitude Azimuth Distance (km) Brightness Sun altitude
Rises 13:16:23 0° 18° (NNE) 2,483 10.3 -15.7°
Reaches altitude 10° 13:18:29 10° 25° (NNE) 1,604 9.4 -15.4°
Maximum altitude 13:21:48 44° 99° (E) 644 7.7 -14.9°
Drops below altitude 10° 13:25:05 10° 173° (S) 1,596 9.3 -14.5°
Sets 13:27:11 0° 180° (S) 2,469 10.2 -14.2°
